Tracking 19245 objects as of 22-Aug-2018
HD Live streaming from Space Station
objects crossing your sky now

FENGYUN 1C DEB

Track FENGYUN 1C DEB now!
10-day predictions


NORAD ID: 29791
Int'l Code: 1999-025CH
Perigee: 743.3 km
Apogee: 832.3 km
Inclination: 99.1 °
Period: 100.5 minutes
Semi major axis: 7158 km
RCS: 0.0798 m2 (small)
Launch date: May 10, 1999
Source: People's Republic of China (PRC)
Launch site: Taiyaun Space Center, China (TSC)

Note: This is SATELLITE DEBRIS
aabbcc
Your satellite tracking list
Your tracking list is empty




NASA's NSSDC Master Catalog

Two Line Element Set (TLE):
1 29791U 99025CH  18232.52052873  .00000471  00000-0  18462-3 0  9997
2 29791  99.0793  59.7468 0062122  10.9086   5.0799 14.33315579604341
Source of the keplerian elements: AFSPC